Old Crow,

7:14 AM PDT on April 25, 2018 (GMT -0700)
Old Crow

Weather History for CZOC - November, 2013

Change the Weather History Date:

Friday, November 8, 2013

  Actual Average Record
Temperature  
Mean Temperature -18 °F -  
Max Temperature -13 °F - - ()
Min Temperature -24 °F - - ()
Degree Days  
Heating Degree Days 84    
Moisture  
Dew Point -25 °F    
Average Humidity 72    
Maximum Humidity 77    
Minimum Humidity 56    
Precipitation  
Precipitation 0.00 in - - ()
Sea Level Pressure  
Sea Level Pressure 30.24 in    
Wind  
Wind Speed 1 mph ()    
Max Wind Speed 4 mph    
Max Gust Speed -    
T = Trace of Precipitation, MM = Missing Value Source: Averaged Metar Reports

Daily Weather History Graph

Daily Weather History Graph

Search for Another Location

Airport or City:

Astronomy

Nov. 08, 2013 Rise Set
Actual Time 9:57 AM PST 4:07 PM PST
Civil Twilight 8:48 AM PST 5:16 PM PST
Nautical Twilight 7:39 AM PST 6:25 PM PST
Astronomical Twilight 6:36 AM PST 7:28 PM PST
Moon 2:54 PM PST (11/8) 9:51 PM PST (11/8)
Length of Visible Light 8h 28m
Length of Day
6h 09m
Waxing Crescent, 34% of the Moon is Illuminated
Nov 8
Waxing Crescent
Nov 9
First Quarter
Nov 17
Full
Nov 25
Last Quarter
Dec 2
New

Hourly Weather History & Observations

Time (PST) Temp. Windchill Dew Point Humidity Pressure Visibility Wind Dir Wind Speed Gust Speed Precip Events Conditions
12:00 AM -19.1 °F - -24.9 °F 75% 30.23 in - East 1.2 mph - N/A   Unknown
1:00 AM -18.8 °F - -24.7 °F 74% 30.22 in - West 1.2 mph - N/A   Unknown
2:00 AM -18.6 °F - -24.3 °F 75% 30.22 in - West 1.2 mph - N/A   Unknown
3:00 AM -18.9 °F - -24.5 °F 76% 30.22 in - WNW 1.2 mph - N/A   Unknown
4:00 AM -21 °F - -27 °F 61% 30.22 in - Calm Calm - -  
4:00 AM -20.6 °F - -26.7 °F 73% 30.22 in - Calm Calm - N/A   Unknown
5:00 AM -21.5 °F - -27.6 °F 73% 30.22 in - NNW 1.2 mph - N/A   Unknown
6:00 AM -21.6 °F - -27.8 °F 73% 30.22 in - Variable 1.2 mph - N/A   Unknown
7:00 AM -23.1 °F -34.2 °F -29.6 °F 72% 30.23 in - NE 3.5 mph - N/A   Unknown
8:00 AM -22.5 °F - -28.8 °F 72% 30.23 in - West 1.2 mph - N/A   Unknown
9:00 AM -23.6 °F -34.8 °F -29.9 °F 72% 30.24 in - NE 3.5 mph - N/A   Unknown
10:00 AM -24 °F - -31 °F 56% 30.25 in - NE 1.2 mph - -  
10:00 AM -24.2 °F - -30.5 °F 72% 30.25 in - ENE 1.2 mph - N/A   Unknown
11:00 AM -20.2 °F - -26.1 °F 74% 30.25 in - East 1.2 mph - N/A   Unknown
12:00 PM -18.0 °F - -24.0 °F 74% 30.25 in - Calm Calm - N/A   Unknown
1:00 PM -17.0 °F - -22.5 °F 76% 30.26 in - WSW 1.2 mph - N/A   Unknown
2:00 PM -13.9 °F - -19.3 °F 77% 30.25 in - South 1.2 mph - N/A   Unknown
3:00 PM -13.7 °F - -19.3 °F 76% 30.25 in - South 2.3 mph - N/A   Unknown
4:00 PM -14 °F - -19 °F 64% 30.26 in - SW 2.3 mph - -  
4:00 PM -14.1 °F - -19.5 °F 77% 30.26 in - WSW 2.3 mph - N/A   Unknown
5:00 PM -18.4 °F - -24.0 °F 76% 30.26 in - WNW 1.2 mph - N/A   Unknown
6:00 PM -20.2 °F - -26.1 °F 74% 30.25 in - WNW 1.2 mph - N/A   Unknown
7:00 PM -18.4 °F - -24.0 °F 76% 30.26 in - SW 2.3 mph - N/A   Unknown
8:00 PM -18.4 °F - -24.2 °F 75% 30.25 in - WSW 2.3 mph - N/A   Unknown
9:00 PM -17.3 °F -27.6 °F -23.1 °F 75% 30.24 in - SW 3.5 mph - N/A   Unknown
10:00 PM -17 °F - -23 °F 61% 30.25 in - WSW 3.5 mph - -  
10:00 PM -17.1 °F - -22.7 °F 76% 30.25 in - West 2.3 mph - N/A   Unknown
11:00 PM -19.8 °F - -25.8 °F 74% 30.22 in - NE 2.3 mph - N/A   Unknown